Simultaneous Nadir Overpasses (SNOs) Predictions

Prediction of SNOs between GOES-17 and METOP-B Satellite Orbit:

Table of predicted SNOs for the next 14.0 days since TLE Epoch: 12/20/2019
Index Date Time (GOES-17) GOES-17 Lat,Lon METOP-B Lat,Lon Distance(km) Time Diff (sec)
1 12/21/2019 06:26:45 -0.03,-137.21 0.71,-133.93 373.61 80
2 12/22/2019 18:42:57 0.02,-137.21 0.32,-138.49 146.14 80
3 12/23/2019 18:24:58 0.03,-137.21 -0.81,-133.50 422.32 80
4 12/25/2019 06:41:20 -0.03,-137.19 -0.22,-138.10 103.61 80
5 12/26/2019 06:23:21 -0.03,-137.18 0.91,-133.11 464.54 80
6 12/27/2019 18:39:34 0.04,-137.17 0.12,-137.67 56.21 80
7 12/30/2019 06:37:55 -0.05,-137.13 -0.08,-137.26 14.82 80
8 01/01/2020 18:38:49 0.05,-137.10 -0.03,-136.83 31.66 80
9 01/03/2020 06:55:10 -0.05,-137.07 -1.01,-141.42 495.68 80




NCC Satellite Simultaneous Nadir Overpasses (SNOs) Prediction Service
